Location: Caltech
(34.1382°N, 118.1253°W)
Time: 01:24:55
(UTC-08:00)

Tiros 1 despin weight - All Passes

Search period start: 27 February 2017 00:00
Search period end: 09 March 2017 00:00
Orbit: 595 x 644 km, 48.2° (Epoch: 26 February)

Date Brightness Start Highest point End Pass type
(mag) Time Alt. Az. Time Alt. Az. Time Alt. Az.
27 Feb - 10:49:40 10° SSE 10:52:04 14° SE 10:54:29 10° E daylight
27 Feb - 12:28:40 10° SW 12:33:09 81° NW 12:37:42 10° NE daylight
27 Feb - 14:11:48 10° WNW 14:15:17 21° NNW 14:18:48 10° NNE daylight
27 Feb - 15:55:52 10° NNW 15:58:16 14° N 16:00:40 10° NNE daylight
27 Feb - 17:37:29 10° NNW 17:41:12 23° NNE 17:44:56 10° ENE daylight
27 Feb - 19:18:35 10° NW 19:23:17 89° SSW 19:27:59 10° SE visible
27 Feb - 21:02:07 10° W 21:04:21 13° SW 21:06:36 10° SSW visible
28 Feb - 11:04:54 10° SSW 11:08:50 31° SE 11:12:50 10° ENE daylight
28 Feb - 12:46:03 10° WSW 12:50:19 42° NNW 12:54:40 10° NE daylight
28 Feb - 14:30:01 10° NW 14:32:51 16° NNW 14:35:43 10° NNE daylight
28 Feb - 16:13:14 10° NNW 16:15:57 15° N 16:18:40 10° NE daylight
28 Feb - 17:54:19 10° NW 17:58:35 35° NNE 18:02:55 10° E daylight
28 Feb - 19:35:50 10° WNW 19:40:16 43° SW 19:44:42 10° SSE visible
01 Mar - 11:21:20 10° SW 11:25:45 69° SE 11:30:15 10° ENE daylight
01 Mar - 13:03:53 10° W 13:07:39 26° NNW 13:11:30 10° NNE daylight
01 Mar - 14:48:07 10° NW 14:50:31 14° N 14:52:56 10° NNE daylight
01 Mar - 16:30:12 10° NNW 16:33:32 19° NNE 16:36:54 10° ENE daylight
01 Mar - 18:11:12 10° NW 18:15:49 64° NE 18:20:28 10° ESE visible
01 Mar - 19:53:39 10° W 19:57:06 21° SW 20:00:34 10° S visible
02 Mar - 09:58:18 10° S 10:01:35 20° SE 10:04:54 10° E daylight
02 Mar - 11:38:26 10° WSW 11:42:50 59° NW 11:47:19 10° NE daylight
02 Mar - 13:22:00 10° WNW 13:25:09 18° NNW 13:28:20 10° NNE daylight
02 Mar - 15:05:46 10° NNW 15:08:12 14° N 15:10:39 10° NE daylight
02 Mar - 16:47:03 10° NW 16:51:01 27° NNE 16:55:01 10° E daylight
02 Mar - 18:28:17 10° WNW 18:32:54 65° SW 18:37:32 10° SE visible
03 Mar - 10:14:12 10° SSW 10:18:25 44° SE 10:22:41 10° ENE daylight
03 Mar - 11:56:02 10° W 12:00:05 33° NNW 12:04:12 10° NE daylight
03 Mar - 13:40:13 10° NW 13:42:46 15° N 13:45:20 10° NNE daylight
03 Mar - 15:22:54 10° NNW 15:25:50 16° NNE 15:28:48 10° NE daylight
03 Mar - 17:03:53 10° NW 17:08:19 45° NNE 17:12:49 10° ESE daylight
03 Mar - 18:45:44 10° WNW 18:49:49 31° SW 18:53:55 10° SSE visible
04 Mar - 08:52:19 10° SSE 08:54:21 13° SE 08:56:25 10° E daylight
04 Mar - 10:30:58 10° SW 10:35:24 86° NW 10:39:56 10° NE daylight
04 Mar - 12:14:01 10° WNW 12:17:30 21° NNW 12:21:01 10° NNE daylight
04 Mar - 13:58:09 10° NNW 14:00:27 14° N 14:02:45 10° NNE daylight
04 Mar - 15:39:47 10° NNW 15:43:23 22° NNE 15:47:01 10° ENE daylight
04 Mar - 17:20:50 10° NW 17:25:29 85° NE 17:30:10 10° SE daylight
04 Mar - 19:04:06 10° W 19:06:36 14° SW 19:09:06 10° SSW visible
05 Mar - 09:07:19 10° SSW 09:11:07 29° SE 09:14:59 10° ENE daylight
05 Mar - 10:48:18 10° WSW 10:52:33 44° NNW 10:56:53 10° NE daylight
05 Mar - 12:32:14 10° NW 12:35:02 16° NNW 12:37:53 10° NNE daylight
05 Mar - 14:15:32 10° NNW 14:18:07 15° N 14:20:43 10° NE daylight
05 Mar - 15:56:36 10° NW 16:00:47 33° NNE 16:05:01 10° E daylight
05 Mar - 17:38:03 10° WNW 17:42:29 46° SW 17:46:57 10° SSE daylight
06 Mar - 09:23:40 10° SW 09:28:02 64° SE 09:32:27 10° ENE daylight
06 Mar - 11:06:06 10° W 11:09:53 26° NNW 11:13:43 10° NNE daylight
06 Mar - 12:50:23 10° NW 12:52:41 14° N 12:55:02 10° NNE daylight
06 Mar - 14:32:31 10° NNW 14:35:43 18° NNE 14:38:56 10° ENE daylight
06 Mar - 16:13:28 10° NW 16:18:01 59° NE 16:22:37 10° ESE daylight
06 Mar - 17:55:48 10° W 17:59:20 22° SW 18:02:55 10° S daylight
07 Mar - 08:00:46 10° S 08:03:52 19° SE 08:06:59 10° E daylight
07 Mar - 09:40:42 10° WSW 09:45:05 63° NW 09:49:32 10° NE daylight
07 Mar - 11:24:13 10° WNW 11:27:21 18° NNW 11:30:32 10° NNE daylight
07 Mar - 13:08:03 10° NNW 13:10:22 14° N 13:12:41 10° NE daylight
07 Mar - 14:49:20 10° NNW 14:53:12 26° NNE 14:57:05 10° E daylight
07 Mar - 16:30:31 10° WNW 16:35:06 70° SW 16:39:44 10° SE daylight
08 Mar - 08:16:34 10° SSW 08:20:42 41° SE 08:24:53 10° ENE daylight
08 Mar - 09:58:15 10° W 10:02:19 34° NNW 10:06:25 10° NE daylight
08 Mar - 11:42:26 10° NW 11:44:56 15° N 11:47:29 10° NNE daylight
08 Mar - 13:25:13 10° NNW 13:28:01 16° NNE 13:30:50 10° NE daylight
08 Mar - 15:06:10 10° NW 15:10:31 42° NNE 15:14:56 10° ESE daylight
08 Mar - 16:47:55 10° WNW 16:52:02 33° SW 16:56:12 10° SSE daylight
